P/2005 RV25 ( LONEOS-Christensen )

Japanese version
Home page
Total 6,336 html files since Dec. 4, 1995
Updated on January 14, 2007

---------------------------------------------------------------------

* Profile

Discovery Date September 11 and October 22, 2005
Magnitude 17.7 mag, 18.3 mag
Discoverer Lowell Observatory Near-Earth Object Search, Eric Christensen (Mt. Lemmon Survey)

* Orbital Elements

The following orbital elements are taken from MPC 55978:

Epoch 2006 Nov. 1.0 TT = JDT 2454040.5
T 2006 Nov. 7.3870 TT                                   MPC
q   3.607896             (2000.0)            P               Q
n   0.1094774      Peri.  191.7040      +0.1998332      -0.9670198
a   4.327659       Node   246.9308      +0.9122591      +0.2424356
e   0.166317       Incl.    9.8837      +0.3575612      -0.0780884
P   9.00
From 101 observations 2005 Sept. 11-2006 Jan. 28, mean residual 0".7.

* Magnitudes Graph

        m1 = -39.5 + 5 log d + 100 log r(t + 400)

---------------------------------------------------------------------

The orbital elements are published at the MPC Ephemerides and Orbital Elements.
The magnitudes graphs are made with Comet for Windows.

---------------------------------------------------------------------

Copyright(C) 1995-2008 Seiichi Yoshida (comet@aerith.net). All rights reserved.